Stephenville, TX

8:04 AM CST on January 16, 2017 (GMT -0600)
Clark Municipal

Weather History for KSEP - January, 2013

Change the Weather History Date:

Tuesday, January 29, 2013

  Actual Average Record
Temperature  
Mean Temperature 64 °F -  
Max Temperature 77 °F 57 °F 80 °F (1947)
Min Temperature 51 °F 36 °F 8 °F (1949)
Degree Days  
Heating Degree Days 1    
Growing Degree Days 14 (Base 50)    
Moisture  
Dew Point 48 °F    
Average Humidity 59    
Maximum Humidity 88    
Minimum Humidity 25    
Precipitation  
Precipitation 0.07 in - - ()
Sea Level Pressure  
Sea Level Pressure 29.70 in    
Wind  
Wind Speed 14 mph (SW)    
Max Wind Speed 25 mph    
Max Gust Speed 33 mph    
Visibility 10 miles    
Events      
Averages and records for this station are not official NWS values.
T = Trace of Precipitation, MM = Missing Value Source: NWS Daily Summary

Daily Weather History Graph

Daily Weather History Graph

Search for Another Location

Airport or City:

Trip Planner

Search our weather history database for the weather conditions in past years. The results will help you decide how hot, cold, wet, or windy it might be!

Date:

Astronomy

Jan. 29, 2013 Rise Set
Actual Time 7:28 AM CST 6:03 PM CST
Civil Twilight 7:02 AM CST 6:29 PM CST
Nautical Twilight 6:33 AM CST 6:59 PM CST
Astronomical Twilight 6:04 AM CST 7:28 PM CST
Moon 8:47 PM CST (1/29) 8:38 AM CST (1/29)
Length of Visible Light 11h 27m
Length of Day
10h 35m
Waning Gibbous, 93% of the Moon is Illuminated
Jan 29
Waning Gibbous
Feb 3
Last Quarter
Feb 10
New
Feb 17
First Quarter
Feb 25
Full

Hourly Weather History & Observations

Time (CST) Temp. Dew Point Humidity Pressure Visibility Wind Dir Wind Speed Gust Speed Precip Events Conditions
12:15 AM 68.0 °F 60.8 °F 78% 29.87 in 10.0 mi SSE 9.2 mph 19.6 mph N/A   Overcast
12:35 AM 68.0 °F 60.8 °F 78% 29.86 in 10.0 mi SSE 10.4 mph 17.3 mph N/A   Overcast
12:55 AM 68.0 °F 60.8 °F 78% 29.85 in 10.0 mi SSE 11.5 mph 18.4 mph N/A   Overcast
1:15 AM 68.0 °F 60.8 °F 78% 29.83 in 10.0 mi SSE 13.8 mph 20.7 mph N/A   Overcast
1:35 AM 68.0 °F 62.6 °F 83% 29.82 in 10.0 mi SSE 11.5 mph 19.6 mph N/A   Overcast
1:55 AM 68.0 °F 62.6 °F 83% 29.81 in 10.0 mi SSE 12.7 mph 19.6 mph N/A   Overcast
2:15 AM 68.0 °F 62.6 °F 83% 29.81 in 10.0 mi SSE 12.7 mph 17.3 mph N/A   Overcast
2:35 AM 68.0 °F 62.6 °F 83% 29.80 in 10.0 mi SSE 12.7 mph 20.7 mph N/A   Overcast
2:55 AM 68.0 °F 62.6 °F 83% 29.79 in 10.0 mi SSE 12.7 mph 20.7 mph N/A   Overcast
3:15 AM 68.0 °F 62.6 °F 83% 29.78 in 10.0 mi South 13.8 mph 19.6 mph N/A   Overcast
3:35 AM 68.0 °F 62.6 °F 83% 29.77 in 10.0 mi SSE 16.1 mph 23.0 mph N/A   Mostly Cloudy
3:55 AM 68.0 °F 62.6 °F 83% 29.76 in 10.0 mi South 15.0 mph 19.6 mph N/A   Mostly Cloudy
4:15 AM 68.0 °F 62.6 °F 83% 29.77 in 10.0 mi South 12.7 mph 18.4 mph N/A   Mostly Cloudy
4:35 AM 68.0 °F 62.6 °F 83% 29.75 in 10.0 mi South 11.5 mph 19.6 mph N/A   Overcast
4:55 AM 68.0 °F 62.6 °F 83% 29.75 in 10.0 mi South 11.5 mph - N/A   Overcast
5:15 AM 68.0 °F 62.6 °F 83% 29.75 in 10.0 mi South 12.7 mph 21.9 mph N/A   Overcast
5:35 AM 68.0 °F 62.6 °F 83% 29.73 in 10.0 mi South 11.5 mph - N/A   Overcast
5:55 AM 68.0 °F 62.6 °F 83% 29.73 in 10.0 mi South 17.3 mph 21.9 mph N/A   Overcast
6:15 AM 69.8 °F 60.8 °F 73% 29.72 in 10.0 mi South 18.4 mph 24.2 mph N/A   Overcast
6:35 AM 69.8 °F 60.8 °F 73% 29.72 in 10.0 mi South 12.7 mph 27.6 mph N/A   Overcast
6:55 AM 69.8 °F 60.8 °F 73% 29.73 in 10.0 mi South 19.6 mph 25.3 mph N/A   Overcast
7:15 AM 69.8 °F 60.8 °F 73% 29.73 in 10.0 mi South 12.7 mph 23.0 mph N/A   Overcast
7:35 AM 69.8 °F 60.8 °F 73% 29.72 in 10.0 mi South 15.0 mph 20.7 mph N/A   Overcast
7:55 AM 69.8 °F 60.8 °F 73% 29.71 in 10.0 mi South 12.7 mph 21.9 mph N/A   Overcast
8:15 AM 69.8 °F 60.8 °F 73% 29.72 in 10.0 mi SSW 15.0 mph 24.2 mph N/A   Overcast
8:35 AM 69.8 °F 60.8 °F 73% 29.72 in 10.0 mi SSW 13.8 mph 19.6 mph N/A   Overcast
8:55 AM 68.0 °F 62.6 °F 83% 29.73 in 2.5 mi SSW 11.5 mph 19.6 mph 0.01 in   Overcast
9:15 AM 66.2 °F 62.6 °F 88% 29.71 in 7.0 mi South 9.2 mph - N/A   Overcast
9:35 AM 66.2 °F 62.6 °F 88% 29.70 in 10.0 mi South 11.5 mph - N/A   Mostly Cloudy
9:55 AM 68.0 °F 62.6 °F 83% 29.68 in 10.0 mi South 11.5 mph 16.1 mph N/A   Scattered Clouds
10:15 AM 68.0 °F 62.6 °F 83% 29.67 in 10.0 mi South 18.4 mph 24.2 mph N/A   Clear
10:35 AM 69.8 °F 62.6 °F 78% 29.66 in 10.0 mi South 15.0 mph 21.9 mph N/A   Clear
10:55 AM 71.6 °F 62.6 °F 73% 29.65 in 10.0 mi South 19.6 mph 25.3 mph N/A   Clear
11:15 AM 71.6 °F 62.6 °F 73% 29.64 in 10.0 mi South 19.6 mph 29.9 mph N/A   Clear
11:35 AM 73.4 °F 62.6 °F 69% 29.63 in 10.0 mi South 19.6 mph 26.5 mph N/A   Scattered Clouds
11:55 AM 73.4 °F 60.8 °F 65% 29.61 in 10.0 mi South 18.4 mph 31.1 mph N/A   Scattered Clouds
12:15 PM 75.2 °F 60.8 °F 61% 29.60 in 10.0 mi South 21.9 mph 28.8 mph N/A   Scattered Clouds
12:35 PM 75.2 °F 60.8 °F 61% 29.58 in 10.0 mi South 20.7 mph 26.5 mph N/A   Scattered Clouds
12:55 PM 75.2 °F 60.8 °F 61% 29.57 in 10.0 mi South 20.7 mph 32.2 mph N/A   Scattered Clouds
1:15 PM 75.2 °F 59.0 °F 57% 29.55 in 10.0 mi South 20.7 mph 28.8 mph N/A   Scattered Clouds
1:35 PM 77.0 °F 59.0 °F 54% 29.54 in 10.0 mi SSW 15.0 mph 25.3 mph N/A   Scattered Clouds
1:55 PM 69.8 °F 46.4 °F 43% 29.56 in 10.0 mi West 17.3 mph 25.3 mph N/A   Mostly Cloudy
2:15 PM 62.6 °F 48.2 °F 59% 29.56 in 7.0 mi West 18.4 mph 29.9 mph 0.01 in   Overcast
2:35 PM 57.2 °F 50.0 °F 77% 29.55 in 5.0 mi West 8.1 mph - 0.06 in   Overcast
2:55 PM 59.0 °F 51.8 °F 77% 29.53 in 10.0 mi West 11.5 mph - N/A   Scattered Clouds
3:15 PM 60.8 °F 50.0 °F 68% 29.54 in 10.0 mi West 9.2 mph - N/A   Clear
3:35 PM 64.4 °F 50.0 °F 59% 29.57 in 10.0 mi WSW 4.6 mph - N/A   Clear
3:55 PM 64.4 °F 37.4 °F 37% 29.64 in 10.0 mi West 23.0 mph 33.4 mph N/A   Scattered Clouds
4:15 PM 60.8 °F 37.4 °F 42% 29.63 in 10.0 mi WNW 11.5 mph 21.9 mph N/A   Overcast
4:35 PM 60.8 °F 37.4 °F 42% 29.62 in 10.0 mi WNW 15.0 mph 23.0 mph N/A   Mostly Cloudy
4:55 PM 60.8 °F 32.0 °F 34% 29.64 in 10.0 mi WNW 15.0 mph 28.8 mph N/A   Scattered Clouds
5:15 PM 60.8 °F 32.0 °F 34% 29.67 in 10.0 mi West 17.3 mph 29.9 mph N/A   Mostly Cloudy
5:35 PM 59.0 °F 32.0 °F 36% 29.67 in 10.0 mi West 12.7 mph - N/A   Overcast
5:55 PM 60.8 °F 30.2 °F 31% 29.67 in 10.0 mi West 10.4 mph 18.4 mph N/A   Overcast
6:15 PM 60.8 °F 30.2 °F 31% 29.63 in 10.0 mi WNW 9.2 mph 19.6 mph N/A   Scattered Clouds
6:35 PM 60.8 °F 30.2 °F 31% 29.66 in 10.0 mi West 9.2 mph - N/A   Mostly Cloudy
6:55 PM 60.8 °F 26.6 °F 27% 29.67 in 10.0 mi West 12.7 mph 21.9 mph N/A   Mostly Cloudy
7:15 PM 59.0 °F 26.6 °F 29% 29.69 in 10.0 mi WSW 16.1 mph 25.3 mph N/A   Overcast
7:35 PM 59.0 °F 23.0 °F 25% 29.70 in 10.0 mi West 16.1 mph 31.1 mph N/A   Overcast
7:55 PM 59.0 °F 23.0 °F 25% 29.70 in 10.0 mi West 12.7 mph 24.2 mph N/A   Scattered Clouds
8:15 PM 57.2 °F 23.0 °F 27% 29.70 in 10.0 mi West 13.8 mph 20.7 mph N/A   Clear
8:35 PM 57.2 °F 23.0 °F 27% 29.71 in 10.0 mi West 16.1 mph 27.6 mph N/A   Clear
8:55 PM 55.4 °F 21.2 °F 26% 29.72 in 10.0 mi West 15.0 mph 21.9 mph N/A   Clear
9:15 PM 55.4 °F 21.2 °F 26% 29.73 in 10.0 mi West 25.3 mph 32.2 mph N/A   Clear
9:35 PM 53.6 °F 21.2 °F 28% 29.72 in 10.0 mi West 16.1 mph 28.8 mph N/A   Clear
9:55 PM 53.6 °F 19.4 °F 26% 29.74 in 10.0 mi West 23.0 mph 29.9 mph N/A   Clear
10:15 PM 53.6 °F 19.4 °F 26% 29.75 in 10.0 mi West 12.7 mph 26.5 mph N/A   Clear
10:35 PM 51.8 °F 21.2 °F 30% 29.76 in 10.0 mi West 19.6 mph 26.5 mph N/A   Clear
10:55 PM 51.8 °F 21.2 °F 30% 29.77 in 10.0 mi West 15.0 mph 20.7 mph N/A   Clear
11:15 PM 51.8 °F 21.2 °F 30% 29.76 in 10.0 mi West 18.4 mph 23.0 mph N/A   Clear
11:35 PM 51.8 °F 21.2 °F 30% 29.77 in 10.0 mi West 13.8 mph 25.3 mph N/A   Clear
11:55 PM 51.8 °F 21.2 °F 30% 29.77 in 10.0 mi West 18.4 mph 24.2 mph N/A   Clear